This is the latest recevied weather packets stored in our database for station/object JA0BES-13. If no packets are shown the sender has not sent any weather packets the latest 10 day(s).
| Time | Temp. | Humidity | Pressure | Rain* | Wind** | Luminosity | Snow |
|---|---|---|---|---|---|---|---|
| 1777788803 | 23.89° C | 34% | 1002.9 hPa | 0 mm | - | - | - |
| 1777788203 | 24.44° C | 36% | 1002.8 hPa | 0 mm | - | - | - |
| 1777787603 | 24.44° C | 37% | 1002.7 hPa | 0 mm | - | - | - |
| 1777787002 | 24.44° C | 37% | 1002.8 hPa | 0 mm | - | - | - |
| 1777786402 | 24.44° C | 36% | 1003.2 hPa | 0 mm | - | - | - |
| 1777785801 | 24.44° C | 36% | 1003 hPa | 0 mm | - | - | - |
| 1777785201 | 24.44° C | 36% | 1002.9 hPa | 0 mm | - | - | - |
| 1777784600 | 25° C | 35% | 1002.9 hPa | 0 mm | - | - | - |
| 1777784000 | 25° C | 35% | 1003.2 hPa | 0 mm | - | - | - |
| 1777783400 | 25.56° C | 36% | 1003.1 hPa | 0 mm | - | - | - |
| 1777782800 | 25.56° C | 35% | 1003.3 hPa | 0 mm | - | - | - |
| 1777782199 | 25.56° C | 36% | 1003.4 hPa | 0 mm | - | - | - |
| 1777781599 | 25° C | 37% | 1003.7 hPa | 0 mm | - | - | - |
| 1777780998 | 25° C | 39% | 1004 hPa | 0 mm | - | - | - |
| 1777780398 | 25° C | 40% | 1004.1 hPa | 0 mm | - | - | - |
| 1777779798 | 24.44° C | 41% | 1004.5 hPa | 0 mm | - | - | - |
| 1777779198 | 24.44° C | 44% | 1004.9 hPa | 0 mm | - | - | - |
| 1777778597 | 23.89° C | 44% | 1005.1 hPa | 0 mm | - | - | - |
| 1777777997 | 24.44° C | 43% | 1005.4 hPa | 0 mm | - | - | - |
| 1777777396 | 23.89° C | 46% | 1005.6 hPa | 0 mm | - | - | - |
| 1777776796 | 23.33° C | 48% | 1005.6 hPa | 0 mm | - | - | - |
| 1777776196 | 23.33° C | 50% | 1005.7 hPa | 0 mm | - | - | - |
| 1777775596 | 22.78° C | 49% | 1006 hPa | 0 mm | - | - | - |
| 1777774995 | 22.22° C | 51% | 1006.2 hPa | 0 mm | - | - | - |
| 1777774395 | 22.22° C | 51% | 1006.6 hPa | 0 mm | - | - | - |
* Rain since midnight (hover to see other rain measurements)
** Current wind speed in m/s (hover to see current wind gust speed)